Hourly Weather Otrznoga

Today, 31 July, Saturday

Time Temperature Precipitation Wind Pressure Humidity
00:00 +19°C° 0 mm 2 mps 742 mmHg 65%
01:00 +18°C° 0 mm 2 mps 742 mmHg 67%
02:00 +18°C° 0 mm 2 mps 741 mmHg 68%
03:00 +17°C° 0 mm 2 mps 741 mmHg 69%
04:00 +17°C° 0 mm 2 mps 741 mmHg 70%
05:00 +19°C° 0 mm 2 mps 741 mmHg 66%
06:00 +21°C° 0 mm 2 mps 741 mmHg 62%
07:00 +23°C° 0 mm 2 mps 742 mmHg 58%
08:00 +25°C° 0 mm 2 mps 741 mmHg 52%
09:00 +27°C° 0 mm 2 mps 741 mmHg 47%
10:00 +29°C° 0 mm 3 mps 741 mmHg 41%
11:00 +30°C° 0 mm 3 mps 741 mmHg 40%
12:00 +31°C° 0 mm 3 mps 741 mmHg 38%
13:00 +33°C° 0 mm 4 mps 740 mmHg 36%
14:00 +30°C° 0.2 mm 5 mps 740 mmHg 46%
15:00 +28°C° 0.2 mm 6 mps 740 mmHg 56%
16:00 +26°C° 0.2 mm 7 mps 741 mmHg 66%
17:00 +23°C° 0.6 mm 6 mps 740 mmHg 73%
18:00 +21°C° 0.6 mm 5 mps 740 mmHg 79%
19:00 +19°C° 0.6 mm 4 mps 740 mmHg 86%
20:00 +19°C° 0.1 mm 4 mps 741 mmHg 88%
21:00 +18°C° 0.1 mm 4 mps 741 mmHg 89%
22:00 +18°C° 0.1 mm 4 mps 742 mmHg 91%
23:00 +17°C° 0 mm 3 mps 742 mmHg 92%

Tomorrow, 1 August, Sunday

Time Temperature Precipitation Wind Pressure Humidity
00:00 +17°C° 0 mm 3 mps 742 mmHg 94%
01:00 +17°C° 0 mm 3 mps 742 mmHg 95%
02:00 +16°C° 0 mm 3 mps 742 mmHg 93%
03:00 +16°C° 0 mm 2 mps 742 mmHg 91%
04:00 +16°C° 0 mm 2 mps 742 mmHg 89%
05:00 +17°C° 0 mm 2 mps 742 mmHg 81%
06:00 +19°C° 0 mm 2 mps 743 mmHg 72%
07:00 +22°C° 0 mm 1 mps 743 mmHg 63%
08:00 +23°C° 0 mm 2 mps 743 mmHg 57%
09:00 +25°C° 0 mm 2 mps 742 mmHg 51%
10:00 +26°C° 0 mm 2 mps 742 mmHg 44%
11:00 +27°C° 0 mm 2 mps 742 mmHg 44%
12:00 +27°C° 0 mm 3 mps 742 mmHg 44%
13:00 +28°C° 0 mm 3 mps 741 mmHg 44%
14:00 +26°C° 0.2 mm 4 mps 741 mmHg 54%
15:00 +23°C° 0.2 mm 4 mps 741 mmHg 65%
16:00 +20°C° 0.2 mm 5 mps 741 mmHg 76%
17:00 +19°C° 0.8 mm 5 mps 741 mmHg 80%
18:00 +17°C° 0.8 mm 5 mps 741 mmHg 85%
19:00 +16°C° 0.8 mm 5 mps 741 mmHg 89%
20:00 +17°C° 0.6 mm 4 mps 741 mmHg 89%
21:00 +15°C° 0.6 mm 4 mps 741 mmHg 89%
22:00 +16°C° 0.6 mm 3 mps 741 mmHg 89%
23:00 +16°C° 0.2 mm 3 mps 740 mmHg 89%

Day after tomorrow, 2 August, Monday

Time Temperature Precipitation Wind Pressure Humidity
00:00 +16°C° 0.2 mm 3 mps 740 mmHg 89%
01:00 +16°C° 0.2 mm 3 mps 740 mmHg 89%
02:00 +16°C° 0 mm 3 mps 740 mmHg 89%
03:00 +14°C° 0 mm 3 mps 740 mmHg 90%
04:00 +15°C° 0 mm 2 mps 740 mmHg 90%
05:00 +15°C° 0 mm 2 mps 740 mmHg 89%
06:00 +15°C° 0 mm 2 mps 741 mmHg 87%
07:00 +16°C° 0 mm 2 mps 741 mmHg 86%
08:00 +16°C° 0.1 mm 2 mps 741 mmHg 88%
09:00 +16°C° 0.1 mm 3 mps 742 mmHg 89%
10:00 +16°C° 0.1 mm 3 mps 742 mmHg 90%
11:00 +18°C° 0.3 mm 3 mps 742 mmHg 83%
12:00 +19°C° 0.3 mm 3 mps 742 mmHg 76%
13:00 +20°C° 0.3 mm 3 mps 742 mmHg 69%
14:00 +21°C° 0.3 mm 4 mps 742 mmHg 69%
15:00 +21°C° 0.3 mm 4 mps 742 mmHg 69%
16:00 +21°C° 0.3 mm 4 mps 742 mmHg 68%
17:00 +20°C° 0.4 mm 4 mps 742 mmHg 74%
18:00 +19°C° 0.4 mm 4 mps 743 mmHg 79%
19:00 +18°C° 0.4 mm 4 mps 743 mmHg 85%
20:00 +17°C° 0 mm 4 mps 743 mmHg 87%
21:00 +16°C° 0 mm 3 mps 743 mmHg 90%
22:00 +14°C° 0 mm 3 mps 744 mmHg 92%
23:00 +14°C° 0 mm 3 mps 744 mmHg 93%

3 August, Tuesday

Time Temperature Precipitation Wind Pressure Humidity
00:00 +14°C° 0 mm 3 mps 744 mmHg 94%
01:00 +14°C° 0 mm 2 mps 744 mmHg 95%
02:00 +14°C° 0 mm 2 mps 745 mmHg 94%
03:00 +14°C° 0 mm 2 mps 745 mmHg 94%
04:00 +14°C° 0 mm 2 mps 745 mmHg 94%
05:00 +14°C° 0 mm 3 mps 745 mmHg 87%
06:00 +15°C° 0 mm 4 mps 746 mmHg 80%
07:00 +17°C° 0 mm 4 mps 746 mmHg 74%
08:00 +19°C° 0 mm 4 mps 746 mmHg 64%
09:00 +20°C° 0 mm 4 mps 746 mmHg 55%
10:00 +22°C° 0 mm 5 mps 747 mmHg 45%
11:00 +22°C° 0 mm 5 mps 747 mmHg 43%
12:00 +23°C° 0 mm 4 mps 746 mmHg 40%
13:00 +25°C° 0 mm 4 mps 746 mmHg 37%
14:00 +25°C° 0 mm 4 mps 746 mmHg 37%
15:00 +25°C° 0 mm 4 mps 746 mmHg 37%
16:00 +25°C° 0 mm 4 mps 746 mmHg 37%
17:00 +22°C° 0 mm 3 mps 746 mmHg 43%
18:00 +21°C° 0 mm 2 mps 746 mmHg 49%
19:00 +19°C° 0 mm 2 mps 746 mmHg 54%
20:00 +19°C° 0 mm 2 mps 746 mmHg 55%
21:00 +18°C° 0 mm 2 mps 746 mmHg 55%
22:00 +17°C° 0 mm 2 mps 746 mmHg 55%
23:00 +17°C° 0 mm 2 mps 746 mmHg 59%

4 August, Wednesday

Time Temperature Precipitation Wind Pressure Humidity
00:00 +16°C° 0 mm 2 mps 746 mmHg 63%
01:00 +16°C° 0 mm 3 mps 746 mmHg 66%
02:00 +14°C° 0 mm 3 mps 745 mmHg 70%
03:00 +14°C° 0 mm 3 mps 745 mmHg 74%
04:00 +14°C° 0 mm 3 mps 745 mmHg 78%
05:00 +16°C° 0.6 mm 3 mps 745 mmHg 81%
06:00 +16°C° 0.6 mm 3 mps 745 mmHg 83%
07:00 +17°C° 0.6 mm 3 mps 745 mmHg 86%
08:00 +17°C° 1.4 mm 3 mps 745 mmHg 89%
09:00 +17°C° 1.4 mm 3 mps 745 mmHg 91%
10:00 +17°C° 1.4 mm 3 mps 744 mmHg 94%
11:00 +18°C° 0.2 mm 4 mps 744 mmHg 86%
12:00 +20°C° 0.2 mm 4 mps 744 mmHg 77%
13:00 +22°C° 0.2 mm 5 mps 744 mmHg 69%
14:00 +22°C° 0.3 mm 4 mps 744 mmHg 68%
15:00 +22°C° 0.3 mm 4 mps 743 mmHg 66%
16:00 +24°C° 0.3 mm 3 mps 743 mmHg 65%
17:00 +22°C° 0.1 mm 3 mps 743 mmHg 69%
18:00 +20°C° 0.1 mm 2 mps 743 mmHg 74%
19:00 +19°C° 0.1 mm 2 mps 743 mmHg 79%
20:00 +20°C° 0 mm 1 mps 743 mmHg 81%
21:00 +19°C° 0 mm 1 mps 743 mmHg 83%
22:00 +18°C° 0 mm 1 mps 743 mmHg 85%
23:00 +18°C° 0 mm 1 mps 743 mmHg 86%

5 August, Thursday

Time Temperature Precipitation Wind Pressure Humidity
00:00 +16°C° 0 mm 1 mps 742 mmHg 87%
01:00 +16°C° 0 mm 1 mps 742 mmHg 87%
02:00 +16°C° 0 mm 1 mps 742 mmHg 87%
03:00 +14°C° 0 mm 0 mps 742 mmHg 88%
04:00 +14°C° 0 mm 0 mps 741 mmHg 88%
05:00 +15°C° 0 mm 0 mps 741 mmHg 84%
06:00 +19°C° 0 mm 1 mps 741 mmHg 79%
07:00 +20°C° 0 mm 1 mps 741 mmHg 75%
08:00 +20°C° 0 mm 1 mps 741 mmHg 74%
09:00 +20°C° 0 mm 1 mps 741 mmHg 73%
10:00 +20°C° 0 mm 2 mps 741 mmHg 72%
11:00 +20°C° 0.1 mm 2 mps 741 mmHg 73%
12:00 +20°C° 0.1 mm 2 mps 741 mmHg 73%
13:00 +20°C° 0.1 mm 3 mps 741 mmHg 74%
14:00 +19°C° 0.3 mm 3 mps 740 mmHg 79%
15:00 +18°C° 0.3 mm 3 mps 740 mmHg 85%
16:00 +17°C° 0.3 mm 3 mps 740 mmHg 90%
17:00 +17°C° 0.5 mm 3 mps 740 mmHg 92%
18:00 +17°C° 0.5 mm 3 mps 740 mmHg 93%
19:00 +16°C° 0.5 mm 2 mps 739 mmHg 95%
20:00 +16°C° 0 mm 2 mps 740 mmHg 95%
21:00 +16°C° 0 mm 2 mps 740 mmHg 95%
22:00 +16°C° 0 mm 2 mps 740 mmHg 95%
23:00 +16°C° 0 mm 2 mps 740 mmHg 95%
Show more